Find Starlink 32551

NORAD ID: 62166 Int'l Des: 2024-225 Owner: SPXS Country: US Constellation: starlink operational
LEOCIRCULAR

現在のビュー

3D地球を読み込み中...

About Starlink 32551

Starlink 32551 (NORAD 62166) is a starlink constellation satellite (v2 mini) launched Nov 30, 2024 by SPXS of US. It operates in LEO, CIRCULAR orbit with a mass of 730.00 kg.

Starlink 32551について

説明を読み込み中...

次回通過

Passes for default location (London). Set your location on the main map for personalized predictions.

高度履歴

Loading altitude history...

軌道要素

1 62166U 24225D 26170.67803527 .00006006 00000-0 51066-3 0 9993
2 62166 70.0005 267.2407 0003474 268.5570 91.5191 14.98336059 85157
Epoch: Jun 19, 2026 • Age: 11 hours

現在のステータス

高度 578.8 km
速度 7.57 km/s
衛星直下点 -21.60°S, 61.32°W
打ち上げ日 Nov 30, 2024
運用期間 1.5 years
タイプ internet

技術仕様

分類 Payload
質量 730.00 kg
乾燥質量 700.00 kg
総質量 730.00 kg
長さ 0.30 m
直径 4.10 m
スパン 29.00 m
形状 Box + pan
製造者 SPXS
バスタイプ Starlink V2M
フェーズステータス In Orbit
所有者/国 SPXS/US

Most Searched